Location: Pian di Sc�
(43.6333°N, 11.5500°E)
Time: 16:24:58
(UTC+00:00)

CZ-2C R/B - Pass Details

Date: 07 August 2020
Orbit: 668 x 784 km, 98.2° (Epoch: 17 September)

Event Time Altitude Azimuth Distance (km) Brightness Sun altitude
Rises 02:39:21 0° 22° (NNE) 3,022 6.8 -14.7°
Reaches altitude 10° 02:41:47 10° 32° (NNE) 2,103 6.0 -14.3°
Maximum altitude 02:45:54 33° 97° (E) 1,135 3.8 -13.8°
Drops below altitude 10° 02:50:03 10° 161° (SSE) 2,110 4.6 -13.2°
Sets 02:52:29 0° 171° (S) 3,033 5.3 -12.8°
